Theta_e
336 336 336 335 336 335 335 336 337 338 338 338 338 338 337 336 335 334 333 332 331 329 328 326 325 325 325 324 324 324 324 324 323 323 319 306 298 298 298 299 299 299 299 299 299 299 299 299 298 299 298 299
336 336 336 336 336 335 335 336 337 337 338 338 337 337 336 335 334 333 331 331 330 329 328 326 324 324 324 324 324 324 324 323 323 322 314 302 298 298 298 298 298 298 299 299 298 299 298 298 298 297 298 298
336 336 335 335 336 335 336 336 337 337 338 337 336 336 335 334 332 330 330 330 330 328 327 325 323 323 324 324 323 323 323 323 323 319 308 300 298 298 298 298 298 299 299 299 299 299 298 298 298 297 298 297
337 336 335 334 335 336 336 336 336 337 337 336 335 334 333 332 330 328 329 330 329 327 327 325 322 322 323 323 323 323 322 322 322 315 303 299 298 298 299 299 299 299 300 300 300 299 299 298 298 297 297 296
336 336 335 334 335 336 337 336 337 337 336 335 333 331 331 332 330 328 328 328 328 326 326 325 322 321 322 323 322 322 321 321 319 310 300 299 298 298 298 299 299 300 300 300 300 300 299 299 298 297 297 297
335 335 335 335 335 336 337 336 336 336 335 333 332 331 331 331 329 328 328 327 326 326 325 324 321 319 320 321 322 321 321 321 317 306 298 298 298 299 298 298 299 300 300 300 300 300 299 298 298 297 297 297
334 334 335 335 335 335 336 336 335 335 334 333 332 331 330 329 328 328 328 327 326 325 325 323 319 317 317 320 322 320 320 320 316 304 298 298 298 298 298 298 300 300 300 300 300 300 299 299 298 298 297 296
334 334 334 334 333 333 334 334 334 334 333 332 331 330 329 329 329 328 328 327 326 325 324 321 318 316 315 320 322 319 319 318 313 303 298 298 297 298 298 299 299 300 300 300 300 300 299 299 298 298 297 296
334 333 333 333 333 333 333 332 332 332 332 331 330 330 329 329 328 328 327 326 325 324 323 321 318 316 316 320 321 318 318 316 309 301 297 297 297 297 297 298 299 299 300 299 299 299 299 299 298 297 297 296
334 333 333 333 332 333 332 332 332 331 331 331 329 330 329 328 328 327 327 325 324 323 322 321 319 318 318 320 320 317 316 315 308 300 298 297 297 297 297 298 299 299 299 299 299 299 299 298 298 297 296 296
333 333 333 333 332 332 333 332 332 331 331 331 330 330 329 328 328 327 326 324 323 322 321 320 320 319 319 320 320 316 316 317 311 303 299 297 296 297 297 298 299 299 299 299 299 299 298 297 297 296 296 296
333 333 332 332 332 332 332 332 332 331 331 330 330 329 329 328 327 326 326 324 323 322 320 320 320 319 319 320 320 317 316 317 312 304 298 296 296 297 297 298 298 299 299 299 298 298 297 297 296 296 295 295
332 332 331 331 332 331 331 332 332 331 330 330 329 328 328 327 326 326 326 324 323 321 320 320 320 319 320 320 320 317 316 314 309 303 298 296 297 297 297 298 298 298 298 298 298 297 297 296 295 295 295 295
331 331 331 331 331 331 330 330 331 330 329 329 328 327 327 327 326 326 325 324 322 321 319 319 319 319 319 319 317 315 313 310 306 301 298 297 296 296 297 297 298 298 297 297 297 297 296 295 295 294 294 294
330 331 330 330 330 330 330 329 330 330 330 329 327 327 327 326 326 326 325 323 322 320 318 318 318 317 317 316 315 312 310 307 304 300 298 297 296 296 297 297 298 297 297 297 296 296 295 294 294 294 294 294
328 329 329 329 329 330 330 329 329 329 329 329 327 326 326 325 325 325 324 323 321 319 317 316 316 315 315 314 312 310 308 305 302 300 298 297 297 297 297 297 298 297 296 296 295 295 294 293 293 294 294 294
327 328 328 328 329 329 330 329 329 329 329 328 327 326 324 324 324 324 324 323 321 319 316 315 314 313 312 311 310 308 306 304 301 299 298 297 297 297 297 297 298 296 296 295 294 294 293 293 293 293 294 294
327 327 328 328 328 329 329 329 328 328 328 327 326 325 324 323 323 324 324 323 321 319 316 313 312 311 310 309 308 307 305 303 301 299 297 296 296 297 297 297 297 296 296 295 294 294 293 294 294 293 294 294
326 327 327 327 327 328 328 328 328 328 327 327 326 324 323 322 322 323 323 322 321 319 316 313 311 310 309 308 307 306 304 302 300 298 297 296 296 296 296 297 296 295 296 295 294 293 293 294 293 294 294 294
325 326 326 326 327 327 327 327 327 327 326 326 325 323 323 322 322 322 322 322 321 319 317 313 311 309 308 307 305 304 303 301 300 298 296 295 296 296 296 297 295 296 296 296 295 294 295 295 294 295 295 294
325 325 325 325 325 325 326 326 326 326 325 325 324 323 322 321 321 322 322 322 320 319 317 314 311 309 307 306 304 303 302 301 300 298 297 295 296 296 297 297 296 296 297 297 295 295 296 295 295 296 296 295
324 324 324 324 324 324 324 324 325 324 324 323 323 322 321 320 320 320 321 321 320 319 317 314 311 308 307 305 304 303 301 300 299 298 297 296 296 296 297 297 296 297 298 297 296 295 295 295 296 297 296 295
323 323 323 323 323 323 322 323 323 323 322 322 321 321 320 319 319 319 319 319 319 319 317 314 311 308 306 305 303 302 301 300 299 298 297 296 296 297 297 297 296 297 297 296 295 296 295 295 296 297 295 295
321 322 322 322 321 321 321 321 320 321 321 320 320 319 318 318 317 317 318 318 318 317 317 314 311 308 306 304 303 301 300 299 298 298 297 297 296 297 297 297 297 297 297 295 295 296 295 295 295 295 295 295
320 320 320 320 320 320 320 319 319 319 319 319 318 317 316 316 316 316 316 316 316 316 315 313 310 307 305 304 302 300 299 298 298 298 297 297 296 296 297 297 297 297 296 295 296 296 295 295 294 293 294 294
318 318 318 319 319 319 319 318 318 318 317 317 316 315 314 314 314 314 314 314 315 315 314 312 310 307 305 304 301 300 299 298 298 297 297 297 296 296 296 297 297 296 296 296 297 297 296 295 294 293 293 294
315 316 317 317 317 317 317 317 316 315 315 314 314 313 312 313 313 313 313 313 313 313 313 312 310 306 304 304 301 299 298 298 298 297 297 297 296 296 296 297 297 296 295 297 298 298 297 297 296 294 293 293
312 314 315 315 314 314 314 313 312 312 312 311 311 310 310 311 311 311 311 311 312 312 312 311 310 307 305 304 302 299 298 298 297 297 296 296 296 296 296 296 297 296 295 297 299 298 298 298 297 298 296 294
309 311 312 312 311 310 311 310 309 309 309 309 309 309 309 309 309 309 310 310 310 310 310 310 309 307 305 304 302 299 298 297 297 296 296 296 296 296 296 296 296 296 295 296 299 299 300 300 298 300 299 295
307 308 309 309 310 309 310 310 310 309 309 309 308 308 308 307 307 307 308 308 308 308 308 308 308 306 305 304 302 300 298 297 297 297 296 296 296 296 296 296 296 296 295 296 299 299 301 301 301 301 298 297
305 306 307 307 308 308 308 308 309 308 308 307 307 306 306 306 305 305 305 306 306 306 306 307 307 306 305 303 302 300 298 297 297 297 296 296 296 296 296 296 296 296 295 295 298 299 300 300 301 301 298 299
Wind_Speed
25 25 24 24 23 22 21 20 20 19 19 18 18 17 16 15 15 15 15 15 14 14 14 12 11 11 11 11 11 10 10 9 9 10 10 9 7 7 6 4 4 3 3 3 4 5 5 6 7 7 7 7
25 25 25 25 24 23 22 22 21 21 21 20 19 18 18 17 18 17 16 16 16 16 15 13 13 12 12 11 11 11 10 10 10 11 11 10 8 7 6 5 4 3 3 3 4 5 6 7 7 7 7 7
25 26 25 25 25 24 24 23 23 24 23 22 21 20 20 19 19 17 17 17 17 17 15 15 15 13 12 12 12 11 11 11 11 12 12 10 9 7 6 5 3 3 2 3 4 5 6 6 6 7 7 7
22 25 27 26 25 25 25 25 25 25 24 23 22 21 21 20 19 18 18 18 18 19 17 16 16 14 13 12 12 12 12 12 11 12 12 10 9 7 5 4 2 1 2 3 4 4 5 5 6 6 6 6
22 24 26 27 27 27 27 26 26 25 24 23 22 22 21 21 21 19 19 19 19 20 19 18 16 15 13 12 13 13 13 13 12 12 12 10 9 6 5 3 2 1 1 2 3 4 4 5 5 5 5 5
23 24 26 29 29 28 29 28 27 27 25 25 23 24 24 22 21 20 18 18 19 19 19 19 18 16 14 13 14 14 14 13 12 13 12 11 9 6 5 4 2 1 0 1 2 3 3 4 4 4 5 4
23 23 25 27 27 27 29 29 29 28 26 25 24 25 27 24 20 19 17 17 19 20 20 20 18 17 16 15 16 16 14 12 12 14 14 11 9 8 7 5 3 2 2 2 2 2 3 3 4 4 5 4
22 23 24 24 25 27 26 26 28 28 26 25 24 25 26 24 21 20 18 18 21 21 19 19 19 18 17 17 18 18 14 13 14 15 15 12 10 10 8 6 5 4 3 3 2 3 3 3 3 4 4 4
23 23 24 24 25 27 26 24 26 27 26 25 25 25 24 23 22 21 19 20 23 20 18 18 19 19 19 18 18 19 15 14 17 17 16 14 12 12 9 8 7 5 5 4 4 3 3 3 3 4 4 5
24 24 24 24 25 26 26 25 24 25 26 26 25 26 25 24 24 22 19 20 22 20 17 17 18 19 20 18 18 20 17 15 18 18 17 16 14 13 11 10 9 8 7 6 5 4 3 3 3 3 4 4
23 24 24 25 26 26 25 24 25 25 25 25 25 27 26 25 25 24 20 19 21 21 18 17 18 19 20 19 19 20 18 16 18 20 19 17 16 15 14 12 10 9 8 7 6 5 4 3 3 3 3 4
24 23 24 24 25 26 25 24 25 25 25 24 25 27 28 28 25 24 21 19 20 21 19 18 18 18 19 19 19 20 18 18 21 22 20 19 18 17 15 12 11 9 9 7 7 6 5 4 4 4 4 4
25 24 24 25 25 25 26 25 24 25 25 24 25 27 29 30 26 22 22 20 21 21 20 19 19 18 19 18 18 19 18 20 24 23 21 21 19 18 15 12 11 10 9 8 8 7 6 6 5 4 4 4
27 26 25 26 26 26 27 27 24 24 25 25 26 28 31 33 28 23 22 22 21 21 21 20 19 19 18 18 18 19 19 21 24 22 21 21 20 18 15 13 12 11 10 10 9 8 7 7 6 5 4 3
29 28 27 26 26 25 25 26 25 24 24 24 26 29 32 36 33 26 22 23 23 21 21 20 20 20 19 18 19 22 24 24 24 22 21 21 20 18 16 15 14 12 12 11 10 9 8 7 6 5 4 3
30 29 28 27 25 25 25 25 25 24 23 24 25 29 33 36 37 33 25 24 26 24 22 21 21 21 20 20 22 26 27 25 24 21 20 20 20 18 17 16 15 14 12 12 11 10 9 7 6 5 4 4
30 28 26 26 25 25 24 24 25 25 24 24 24 28 35 37 38 37 30 27 29 28 25 24 24 24 23 24 25 27 27 27 25 23 21 22 21 19 18 18 17 16 13 13 12 11 9 7 6 6 4 4
26 25 24 24 23 23 23 24 25 25 24 23 23 28 35 38 38 38 36 31 31 31 28 27 28 28 28 28 27 27 28 28 27 25 25 24 22 21 19 18 18 17 14 13 12 11 10 8 7 6 5 5
23 22 22 21 20 21 21 22 23 23 23 22 23 28 34 38 39 39 38 35 33 33 32 29 30 30 30 29 28 28 29 29 28 27 26 25 23 21 19 18 18 16 14 13 12 12 10 9 8 6 7 7
21 18 18 18 18 18 18 20 20 20 21 21 21 26 32 36 39 40 39 37 35 35 34 31 31 31 30 30 30 30 30 30 29 27 26 25 24 23 20 17 17 15 13 13 12 11 9 9 9 6 7 7
20 17 15 16 16 16 16 17 18 17 19 20 20 24 28 33 37 41 40 39 38 36 35 33 31 31 31 32 33 32 32 31 29 27 26 26 24 23 21 19 18 15 12 13 13 12 10 10 8 7 7 7
18 17 15 15 15 16 16 17 17 16 16 17 19 20 23 28 34 38 40 40 39 37 35 32 31 30 31 33 34 33 32 32 29 27 27 27 25 24 22 21 21 17 13 14 13 11 11 10 8 7 8 8
15 15 15 14 14 15 16 16 17 17 16 16 17 17 19 24 30 34 37 39 39 38 35 32 30 30 31 33 34 32 32 31 29 26 27 28 27 24 21 21 21 18 15 15 13 10 9 9 8 7 8 8
12 13 13 13 13 14 15 15 16 17 20 19 17 15 16 21 26 28 33 36 37 37 35 33 30 30 30 32 33 32 32 32 30 29 29 29 29 25 20 18 19 19 18 17 12 9 8 8 8 8 8 8
12 12 12 12 13 13 13 13 13 16 19 19 17 14 14 18 22 24 28 32 34 35 34 32 30 29 29 31 32 32 32 31 29 30 30 28 29 28 24 20 19 21 21 16 11 8 6 5 6 8 8 7
9 10 10 10 10 10 9 9 9 11 12 14 15 12 13 16 19 22 25 28 32 34 34 33 29 27 28 31 32 31 31 30 29 30 29 29 30 29 28 24 22 25 22 14 11 9 6 5 4 6 7 6
6 7 7 7 5 5 5 5 6 7 7 9 11 11 15 19 19 22 24 27 30 32 34 34 31 27 28 31 32 31 31 30 30 31 31 32 32 30 26 22 23 28 24 16 13 10 5 4 4 3 7 8
3 2 3 4 4 4 5 5 5 6 7 9 11 12 16 20 22 23 24 26 29 32 34 35 34 31 30 32 33 33 33 32 33 35 34 34 33 31 26 20 22 28 27 21 16 10 3 4 4 3 7 10
2 1 1 3 4 5 6 7 6 5 7 9 12 12 13 16 19 21 23 25 27 30 34 35 35 34 32 34 35 36 36 35 35 36 37 36 33 33 30 24 24 27 29 26 21 14 6 5 4 3 7 10
3 1 2 1 3 4 4 6 6 6 6 6 7 9 10 12 15 18 21 23 25 27 31 34 34 33 33 35 36 37 38 35 35 36 38 38 35 34 33 28 25 26 30 29 25 21 13 7 4 4 10 8
7 5 3 3 3 4 4 5 5 4 4 4 4 5 7 9 11 15 18 20 22 24 27 31 33 34 34 35 35 36 36 34 33 37 39 39 37 37 34 31 28 28 31 29 27 27 22 14 8 9 13 8
Wind_Direction
211 211 209 210 209 208 209 209 208 206 203 200 196 197 201 204 204 209 217 220 223 231 237 227 208 207 208 205 205 202 200 202 196 194 215 227 206 190 181 168 158 136 118 101 87 74 71 67 68 71 77 93
215 213 211 211 210 209 209 208 207 202 199 201 201 204 207 208 211 216 225 231 233 232 232 223 207 205 207 204 206 205 202 201 192 199 218 217 199 189 180 173 162 141 120 98 81 69 66 65 67 72 76 86
217 216 213 213 212 210 209 208 206 202 201 206 209 211 214 217 221 225 230 233 231 227 226 221 210 205 205 203 204 203 201 198 192 207 220 210 198 189 182 180 161 136 104 70 56 52 49 54 59 65 74 82
216 217 216 214 213 210 209 208 206 206 207 211 214 218 221 223 225 225 227 228 226 226 227 225 217 208 203 200 201 198 197 194 191 211 217 204 199 193 191 184 159 113 65 43 30 30 31 33 42 53 61 75
214 218 218 214 214 211 209 209 208 209 211 214 217 221 222 221 221 219 221 221 221 226 229 230 223 212 203 196 198 196 194 190 192 212 212 203 204 198 196 182 168 134 39 9 13 10 11 15 24 35 42 61
211 217 221 217 214 213 212 211 212 211 213 216 217 221 221 218 216 212 215 216 218 224 228 231 226 214 203 193 197 194 190 188 195 212 210 206 207 198 200 191 192 204 303 323 350 346 353 4 8 11 21 40
209 214 219 218 215 216 216 215 216 215 216 218 217 222 222 216 213 209 208 211 216 221 224 229 223 213 203 192 198 195 187 189 198 212 211 208 206 198 201 197 205 220 240 268 291 309 322 335 345 354 5 16
208 210 214 216 215 215 216 216 218 217 216 218 216 220 221 214 211 207 205 211 214 216 217 220 217 210 201 192 202 201 189 195 204 213 213 207 205 203 202 200 208 221 233 246 260 280 292 310 326 338 347 354
208 209 212 213 212 212 213 213 215 216 214 215 213 215 217 211 209 203 200 209 212 209 203 205 209 204 197 192 201 205 195 202 210 213 213 207 205 206 204 202 207 215 224 233 241 256 271 291 310 323 334 339
210 210 212 213 212 212 212 210 210 212 212 211 211 213 214 209 207 200 196 204 205 199 191 194 199 195 194 190 197 204 195 200 211 212 212 208 205 206 205 205 208 212 217 223 231 241 255 272 291 307 317 325
210 212 213 214 214 212 211 208 207 208 209 207 207 210 210 207 204 196 192 198 197 194 192 193 193 190 192 190 195 200 191 193 207 210 210 207 205 205 205 207 210 213 218 223 230 237 246 258 271 286 301 311
211 212 213 214 213 212 210 208 207 206 205 205 204 207 208 205 200 192 191 194 193 193 194 195 192 190 192 191 193 195 190 194 204 208 207 205 205 206 207 208 211 214 219 224 229 235 239 245 256 270 284 295
210 212 212 212 212 211 210 208 207 205 204 203 203 208 209 205 198 192 194 195 194 194 193 193 192 190 190 191 191 189 190 201 207 206 204 205 206 207 207 207 211 216 218 221 226 230 234 238 246 257 272 285
209 210 210 210 211 212 212 211 209 206 205 202 204 209 209 207 203 196 195 198 197 193 192 192 191 191 190 189 190 191 194 205 209 205 204 205 206 205 204 206 211 214 217 220 224 227 229 231 238 248 258 267
210 209 211 211 211 213 214 213 209 207 206 203 205 207 209 211 210 204 197 201 201 194 192 192 192 193 191 189 195 200 203 208 209 205 206 206 205 203 201 205 209 211 216 220 223 226 225 225 229 238 251 254
213 209 212 213 212 214 213 212 210 207 207 205 204 207 214 216 215 211 203 204 207 202 195 194 196 196 195 196 203 208 209 210 207 202 205 205 203 201 201 205 207 207 211 216 219 221 221 221 222 227 239 242
215 210 210 211 211 212 211 210 210 208 207 207 206 213 221 221 217 215 210 209 212 209 202 201 204 203 203 206 210 212 211 211 207 202 204 206 202 201 202 205 206 204 204 209 214 216 216 217 222 227 230 235
212 210 208 209 209 211 209 208 208 208 207 207 208 216 224 223 219 217 215 214 215 213 209 209 211 212 211 212 213 213 212 212 209 205 207 208 204 204 204 205 206 201 199 205 209 212 213 214 221 224 220 226
210 209 209 209 209 210 209 208 209 209 208 207 209 218 226 225 221 219 217 216 217 216 214 214 215 216 215 214 213 214 214 213 210 208 211 209 205 204 202 204 204 196 196 202 203 208 208 210 215 213 216 221
213 211 210 209 211 211 210 211 213 211 211 210 209 218 226 226 223 221 219 218 219 219 217 216 218 219 217 216 215 216 216 214 211 209 211 210 205 202 197 198 197 188 191 197 198 199 194 202 205 195 209 212
213 211 209 210 212 212 211 213 215 214 215 214 213 218 224 227 225 222 221 220 221 221 220 219 220 220 220 219 218 218 217 214 210 208 208 207 204 201 196 194 192 182 182 190 193 193 190 196 191 179 190 192
212 212 210 209 210 210 212 214 215 214 216 217 217 219 222 226 227 225 222 221 222 222 222 221 221 221 222 222 220 217 216 213 207 206 207 204 201 200 198 195 191 181 177 184 186 187 191 192 177 173 183 181
212 213 213 212 211 211 210 213 214 214 222 227 224 218 219 227 229 227 223 221 223 222 222 223 222 222 223 223 220 216 215 211 205 204 204 203 201 197 197 198 191 181 178 181 179 176 181 184 176 178 186 182
207 208 213 215 215 216 214 216 217 221 227 231 230 220 216 226 229 227 224 222 223 223 223 224 223 223 225 224 219 215 214 210 205 204 203 202 200 194 191 192 186 182 181 175 166 163 172 179 184 188 184 180
205 207 211 214 218 223 223 221 220 223 224 227 232 223 212 225 229 227 225 223 223 224 223 223 224 225 226 225 220 217 216 212 208 207 204 202 200 196 189 183 181 184 179 165 154 152 159 165 187 196 184 181
209 212 214 218 224 228 228 226 221 222 223 224 229 224 216 225 229 229 228 227 225 225 224 223 224 225 227 226 222 220 218 214 211 208 205 202 200 198 194 188 184 184 177 167 165 157 149 153 178 200 191 191
226 224 222 224 227 222 216 219 218 221 222 219 218 222 230 233 233 234 232 231 228 226 225 225 224 225 228 227 223 220 218 215 213 210 207 205 202 197 195 193 190 188 184 176 164 153 161 175 162 193 203 204
256 236 205 202 218 217 205 209 209 212 222 228 231 234 239 241 239 237 235 233 232 229 228 226 225 225 228 228 225 222 219 216 215 213 210 208 205 197 191 189 193 195 192 184 170 162 180 172 175 222 195 191
299 234 162 188 225 234 229 236 234 227 229 233 237 238 241 244 243 240 238 237 235 233 231 229 227 226 228 230 227 223 221 219 218 217 213 210 208 203 197 191 192 197 197 194 188 184 178 154 199 240 158 161
6 333 305 265 262 270 262 258 253 247 245 237 234 234 234 239 242 243 241 238 237 236 234 232 229 228 228 230 229 226 223 221 220 218 216 212 209 208 207 200 191 194 199 201 198 197 196 184 195 166 146 149
21 8 349 333 309 303 302 295 293 294 277 256 246 238 229 229 237 243 241 237 237 237 236 236 233 230 231 231 232 230 225 222 222 221 219 216 212 211 210 206 198 196 198 201 205 207 208 208 198 162 159 166